Wind_Speed
36 35 35 36 37 38 39 40 41 42 44 46 48 50 51 52 54 56 57 58 59 59 60 61 61 61 62 63 65 63 63 65 67 67 64 65 65 65 61 62 63 64 47
37 36 38 38 39 41 42 43 44 46 47 49 51 54 56 58 59 60 61 62 62 62 60 59 58 58 58 58 60 63 64 65 65 67 69 68 69 68 65 66 69 66 64
39 41 42 42 43 43 46 48 48 48 50 52 56 59 60 60 58 58 57 58 58 58 58 58 59 59 59 60 60 61 63 65 66 67 68 70 71 69 70 70 71 69 64
39 41 43 45 45 47 48 49 51 53 57 59 61 61 57 52 49 49 52 54 55 57 58 58 60 59 62 65 63 64 66 66 67 68 71 74 74 73 69 71 73 70 65
42 42 43 44 47 48 50 51 55 59 61 63 65 63 58 53 51 51 51 49 47 50 54 55 57 59 64 66 67 65 62 60 57 62 61 64 67 73 76 70 69 70 63
45 45 46 47 48 50 53 57 61 64 63 59 55 52 51 52 51 47 46 47 48 49 51 53 53 55 56 60 61 63 61 59 56 52 52 57 59 58 63 68 70 70 60
47 46 47 48 50 52 55 60 63 58 54 51 47 48 49 44 44 45 48 51 51 47 50 51 52 50 51 56 57 56 61 55 53 51 55 55 56 57 56 58 59 62 59
47 45 46 48 49 52 58 59 53 50 45 45 45 44 41 39 40 43 48 49 45 45 49 53 55 52 48 47 48 52 47 48 46 47 48 50 51 54 57 56 55 53 50
44 44 46 48 49 53 54 53 51 46 44 44 44 44 42 41 41 42 45 46 47 43 45 47 48 51 54 61 50 44 47 49 44 40 35 38 42 42 44 48 52 52 48
47 46 46 49 50 51 51 50 49 46 46 45 46 47 48 48 48 48 49 49 46 42 39 44 45 39 37 42 38 34 36 46 40 35 35 35 35 33 38 41 46 49 49
47 46 48 49 48 48 48 49 46 46 49 49 48 50 51 46 45 44 43 43 44 43 38 39 43 38 33 32 32 32 32 32 33 35 34 35 35 32 33 37 40 47 50
48 47 48 48 45 47 47 46 46 49 50 48 48 48 47 43 44 45 43 41 42 41 39 38 34 42 34 26 32 35 36 34 35 34 34 33 32 37 35 33 35 42 49
46 47 49 44 46 46 47 46 47 50 45 42 43 45 46 43 43 44 43 40 39 38 39 38 36 30 31 29 27 34 41 34 36 37 34 34 32 33 38 34 33 32 45
42 45 44 47 49 51 47 45 47 44 44 46 45 47 45 46 45 44 43 40 37 35 33 35 37 33 28 28 32 32 36 35 35 36 37 38 35 35 37 39 34 32 30
50 50 53 55 52 53 49 46 45 44 44 45 45 46 47 47 45 44 42 39 34 32 30 30 31 33 34 29 30 29 31 35 36 39 39 38 38 38 39 41 39 35 36
52 53 49 52 49 46 44 44 44 43 41 42 45 46 44 43 42 41 39 35 30 27 25 24 25 25 26 29 30 32 32 34 35 36 36 37 37 36 38 41 41 41 39
47 53 55 45 45 43 43 43 41 40 42 45 45 41 39 37 35 36 34 26 20 16 15 16 17 17 18 20 22 25 26 27 30 32 33 34 34 34 35 36 37 39 42
52 46 44 45 45 44 45 38 42 42 43 44 40 34 32 31 32 29 21 13 12 14 19 13 13 13 13 13 15 17 19 20 20 21 23 26 26 27 28 30 32 35 39
41 39 33 36 42 41 39 39 40 42 43 38 32 28 27 22 21 16 12 11 14 15 15 13 11 10 10 12 14 16 16 17 17 18 20 19 19 21 21 21 22 22 23
39 34 38 37 38 35 42 37 41 42 36 30 25 22 21 17 15 16 13 14 13 11 7 6 7 9 11 12 14 14 13 14 16 16 16 17 18 18 21 21 22 23 24
34 34 38 38 34 33 37 43 45 34 28 25 22 21 18 14 10 10 10 7 4 4 6 7 10 11 12 13 15 15 15 15 16 17 17 18 19 20 21 21 22 23 24
35 39 34 31 32 34 40 43 32 26 24 22 21 17 14 10 10 9 6 3 4 6 8 10 11 11 11 12 12 13 15 16 15 17 19 20 21 21 23 25 26 28 29
38 34 31 31 33 37 38 26 24 24 22 20 18 15 11 10 10 4 3 5 7 8 7 8 8 9 10 10 10 10 12 13 15 17 19 22 24 26 29 31 34 36 37
32 30 30 31 34 30 23 24 24 21 20 18 16 16 13 12 9 7 7 8 9 10 10 10 11 12 14 15 17 18 20 21 23 26 28 30 32 35 38 41 44 46 48
30 30 32 28 24 24 24 23 22 20 20 17 17 16 15 13 12 11 12 13 14 14 16 17 19 19 19 19 21 22 25 27 28 31 32 34 36 38 41 43 45 48 51
28 28 25 25 25 24 24 22 21 21 19 18 18 16 16 17 17 17 16 17 18 20 21 23 24 23 23 23 24 26 28 31 33 35 38 40 42 43 46 48 50 52 54
Wind_Direction
288 288 288 289 289 287 287 287 286 284 284 284 284 283 283 283 283 282 281 280 278 275 274 271 270 268 267 269 271 269 267 266 265 265 262 263 265 268 269 269 268 265 263
287 286 286 287 286 287 286 287 287 287 287 286 286 286 285 284 284 283 282 281 280 278 275 271 270 267 265 263 263 264 266 266 264 264 265 261 261 261 262 262 266 268 269
287 287 289 289 288 289 290 291 292 291 289 290 291 292 292 291 289 289 284 281 278 276 273 270 267 265 264 261 260 260 260 262 264 266 264 263 262 259 259 258 260 266 267
287 286 287 286 288 290 293 294 292 292 295 299 301 300 298 294 288 279 272 272 270 269 268 266 264 262 262 262 258 257 257 257 259 264 269 265 262 259 252 256 257 262 265
288 289 290 291 291 293 294 296 296 298 299 299 300 299 297 293 289 286 286 283 280 274 268 265 264 265 262 262 260 261 263 263 261 263 264 268 272 270 262 247 255 258 259
291 292 292 292 294 296 297 298 299 298 299 297 295 293 290 289 290 292 289 287 283 283 275 268 265 269 266 264 261 258 261 263 266 260 259 265 268 271 273 272 257 258 261
288 290 292 294 296 298 298 299 298 297 296 294 290 288 289 292 292 290 288 286 285 288 279 271 272 271 265 263 262 262 261 261 262 261 262 263 269 272 272 273 270 264 261
288 289 291 293 296 299 300 298 296 296 294 291 290 291 290 289 288 287 286 282 280 286 284 275 270 266 263 265 259 265 258 261 261 264 262 267 272 270 268 268 265 262 259
285 287 291 294 296 300 298 295 295 295 292 290 288 290 290 290 289 290 290 286 284 283 288 277 271 266 266 271 268 255 258 257 258 259 263 268 270 274 273 269 268 263 256
287 290 291 292 297 299 295 294 295 293 289 290 287 291 294 292 292 293 288 287 283 281 287 281 269 258 263 268 253 246 250 254 245 247 257 271 279 282 279 277 272 262 259
285 286 289 290 295 295 295 294 293 291 292 290 290 289 293 293 294 294 290 286 282 280 282 283 268 260 264 248 234 235 231 230 235 245 268 275 279 285 294 277 281 260 257
284 283 285 291 293 295 294 293 291 289 291 291 291 292 292 293 296 294 291 291 284 282 279 285 282 266 258 248 234 230 231 238 244 259 265 271 275 282 289 285 287 264 254
276 280 285 288 295 295 294 291 290 291 290 291 293 294 294 296 297 295 292 292 287 284 280 280 287 276 264 258 252 250 243 252 245 253 259 270 275 279 286 290 285 287 251
280 282 283 291 295 293 291 289 290 288 287 294 292 290 291 294 294 293 293 290 283 282 281 282 283 278 284 257 255 249 239 244 247 257 260 267 273 275 277 282 286 280 277
275 276 280 288 293 292 292 289 288 288 287 288 289 294 294 294 292 292 292 290 283 281 276 278 282 285 288 277 260 256 255 258 259 263 268 273 274 274 273 272 278 279 274
277 285 286 297 293 291 288 286 288 289 288 292 295 294 294 292 294 294 296 295 288 280 275 275 279 283 284 289 286 281 273 273 273 272 274 275 274 274 276 274 273 274 276
280 285 288 292 290 287 286 288 288 288 290 295 298 295 293 296 299 303 306 299 278 266 267 276 281 277 276 278 281 283 283 285 285 284 283 284 284 283 281 277 274 273 275
277 283 289 285 286 284 288 283 289 289 293 296 294 294 296 298 301 304 294 270 263 253 252 257 268 268 271 270 274 277 281 282 282 285 288 286 287 287 286 286 287 284 280
284 284 289 290 286 284 283 278 283 290 292 292 293 292 298 302 303 295 281 262 262 253 247 260 268 268 268 270 283 270 269 269 273 279 282 287 289 291 288 287 286 285 282
276 281 292 291 283 281 271 281 288 285 289 291 285 289 292 293 311 301 272 266 249 243 244 253 267 280 287 292 292 291 284 280 272 282 286 289 290 294 296 296 296 294 294
270 283 289 283 276 271 268 274 279 284 284 281 280 280 288 281 287 259 259 234 209 244 262 279 290 298 299 303 303 300 296 292 296 293 294 297 300 300 301 300 300 300 300
275 283 281 276 270 270 270 273 278 276 275 273 273 274 276 263 239 215 198 221 288 300 307 304 297 296 298 299 299 300 299 294 293 294 297 298 297 299 301 300 299 298 295
278 276 275 273 274 272 271 268 268 271 267 263 267 263 258 244 232 233 274 296 299 297 295 297 294 297 302 310 311 312 313 313 309 305 303 302 303 301 299 299 300 299 297
276 274 273 271 272 265 265 261 267 262 255 259 249 258 236 237 235 254 275 284 283 289 300 309 314 318 320 321 319 316 313 310 306 304 302 302 301 301 301 300 300 300 298
270 277 271 268 263 265 257 261 256 249 253 245 249 249 232 239 244 256 268 280 288 296 303 309 309 309 308 308 308 309 308 307 307 305 304 303 302 299 298 297 297 297 298
271 266 259 259 260 253 255 254 246 248 240 244 233 230 235 245 249 256 267 279 289 295 297 298 298 298 299 300 300 302 303 302 302 303 303 301 299 297 296 296 296 296 296
Height
5763 5763 5762 5761 5760 5759 5758 5757 5756 5753 5751 5750 5748 5746 5745 5743 5741 5740 5738 5737 5737 5736 5734 5732 5733 5733 5732 5731 5729 5731 5733 5732 5730 5732 5738 5739 5737 5739 5744 5744 5743 5734 5716
5754 5754 5753 5753 5752 5751 5749 5747 5746 5744 5742 5740 5737 5734 5731 5730 5726 5725 5723 5721 5720 5719 5717 5716 5716 5716 5716 5716 5717 5716 5716 5716 5715 5717 5716 5721 5726 5726 5730 5730 5727 5729 5732
5744 5744 5744 5743 5742 5741 5739 5738 5736 5733 5730 5727 5724 5720 5717 5714 5711 5709 5706 5704 5702 5701 5699 5698 5698 5699 5699 5699 5700 5701 5701 5700 5698 5698 5699 5700 5703 5709 5712 5714 5715 5715 5721
5735 5735 5734 5734 5734 5732 5729 5727 5725 5722 5717 5711 5707 5702 5699 5696 5694 5692 5689 5687 5686 5684 5683 5681 5680 5679 5679 5680 5680 5680 5682 5685 5686 5684 5681 5681 5684 5688 5698 5699 5700 5702 5708
5727 5726 5725 5725 5723 5721 5719 5716 5712 5708 5703 5698 5693 5689 5684 5681 5678 5675 5672 5670 5670 5668 5666 5663 5662 5662 5661 5662 5664 5666 5667 5669 5672 5672 5671 5669 5668 5668 5670 5685 5685 5687 5696
5715 5715 5715 5713 5711 5708 5705 5702 5699 5695 5690 5686 5682 5676 5672 5667 5664 5661 5659 5656 5654 5652 5651 5647 5648 5646 5645 5646 5649 5651 5653 5654 5657 5658 5659 5658 5658 5659 5654 5657 5669 5672 5680
5706 5705 5704 5702 5700 5697 5694 5690 5686 5682 5678 5674 5670 5665 5661 5657 5654 5650 5647 5643 5640 5638 5635 5633 5633 5631 5631 5633 5635 5637 5639 5642 5643 5645 5646 5646 5646 5645 5644 5642 5648 5654 5664
5696 5695 5693 5692 5689 5685 5682 5678 5675 5670 5667 5663 5659 5654 5651 5648 5645 5641 5637 5633 5629 5625 5622 5619 5618 5618 5620 5621 5622 5624 5625 5628 5631 5633 5633 5633 5633 5633 5632 5630 5631 5637 5644
5685 5683 5683 5681 5679 5675 5672 5668 5663 5660 5656 5652 5649 5645 5642 5638 5634 5631 5627 5623 5619 5615 5610 5607 5605 5606 5607 5607 5608 5609 5612 5617 5620 5621 5623 5624 5624 5622 5620 5618 5619 5621 5629
5673 5671 5671 5669 5667 5664 5661 5658 5653 5649 5645 5641 5638 5635 5631 5627 5623 5619 5615 5612 5608 5605 5601 5597 5596 5596 5596 5595 5595 5598 5602 5606 5610 5612 5614 5614 5612 5611 5609 5607 5606 5607 5612
5662 5660 5659 5658 5655 5653 5650 5647 5643 5638 5635 5631 5627 5624 5620 5616 5612 5608 5604 5601 5598 5595 5592 5589 5586 5587 5587 5586 5588 5590 5593 5598 5601 5603 5604 5603 5602 5601 5600 5598 5597 5596 5598
5649 5647 5647 5646 5645 5641 5639 5634 5631 5627 5624 5620 5617 5614 5610 5606 5602 5598 5594 5591 5588 5585 5583 5581 5578 5578 5578 5578 5579 5582 5586 5589 5592 5594 5595 5594 5592 5590 5590 5589 5587 5585 5587
5637 5636 5635 5635 5634 5630 5627 5623 5620 5617 5613 5610 5607 5603 5600 5596 5592 5587 5584 5581 5578 5576 5574 5573 5571 5571 5570 5570 5572 5576 5578 5580 5582 5584 5584 5584 5583 5582 5581 5580 5578 5576 5577
5624 5625 5624 5624 5622 5619 5617 5613 5609 5606 5603 5600 5597 5593 5589 5585 5581 5578 5574 5571 5569 5567 5566 5565 5564 5563 5564 5563 5564 5566 5569 5572 5574 5575 5574 5574 5574 5573 5573 5572 5571 5570 5571
5615 5615 5613 5614 5610 5607 5604 5602 5598 5595 5593 5590 5587 5583 5579 5574 5571 5567 5564 5561 5560 5559 5559 5557 5557 5557 5556 5557 5558 5559 5562 5564 5564 5566 5565 5565 5565 5564 5564 5563 5562 5563 5563
5605 5604 5601 5601 5599 5595 5593 5590 5588 5585 5583 5580 5576 5573 5569 5565 5561 5557 5554 5552 5551 5551 5551 5551 5551 5551 5551 5552 5553 5554 5555 5556 5556 5556 5555 5555 5555 5554 5554 5554 5553 5552 5553
5595 5591 5591 5590 5588 5585 5582 5580 5578 5576 5574 5571 5567 5563 5560 5556 5552 5548 5545 5543 5544 5545 5546 5547 5547 5547 5547 5547 5548 5548 5548 5547 5547 5547 5546 5545 5544 5543 5543 5544 5543 5543 5542
5586 5583 5580 5578 5577 5574 5572 5570 5569 5567 5565 5561 5558 5555 5552 5549 5545 5542 5539 5539 5539 5541 5542 5543 5543 5544 5543 5543 5543 5543 5541 5542 5542 5541 5540 5539 5537 5536 5535 5534 5533 5532 5532
5573 5572 5570 5568 5566 5564 5562 5561 5560 5558 5556 5553 5551 5549 5546 5543 5540 5537 5536 5536 5537 5537 5538 5539 5540 5540 5540 5540 5539 5538 5537 5537 5537 5537 5536 5535 5533 5532 5530 5528 5526 5525 5524
5563 5562 5561 5558 5555 5554 5553 5553 5552 5550 5548 5546 5544 5543 5541 5539 5537 5535 5534 5534 5534 5535 5535 5536 5537 5537 5537 5536 5535 5535 5533 5533 5533 5533 5531 5530 5529 5526 5525 5522 5520 5519 5517
5553 5552 5550 5547 5546 5545 5546 5545 5543 5542 5541 5540 5539 5538 5537 5535 5534 5533 5532 5533 5533 5534 5534 5534 5534 5534 5533 5532 5531 5530 5530 5529 5528 5527 5527 5525 5523 5521 5519 5518 5516 5513 5511
5543 5541 5539 5538 5538 5537 5537 5536 5535 5535 5535 5534 5534 5533 5532 5532 5532 5531 5532 5532 5532 5532 5532 5532 5531 5531 5530 5529 5528 5527 5525 5524 5523 5523 5521 5519 5518 5516 5514 5512 5509 5506 5504
5532 5530 5529 5529 5529 5529 5528 5528 5529 5529 5529 5529 5529 5529 5529 5529 5530 5530 5530 5531 5531 5531 5530 5529 5528 5527 5526 5525 5523 5522 5521 5520 5518 5517 5516 5514 5512 5510 5507 5504 5501 5498 5495
5521 5520 5520 5520 5521 5520 5521 5521 5522 5523 5524 5525 5525 5525 5526 5527 5527 5528 5528 5528 5528 5528 5527 5525 5524 5522 5521 5519 5518 5516 5515 5513 5512 5510 5508 5506 5504 5501 5498 5495 5491 5487 5484
5511 5510 5511 5512 5512 5513 5514 5515 5516 5518 5519 5520 5521 5522 5523 5524 5524 5525 5525 5524 5524 5523 5522 5520 5518 5517 5516 5514 5513 5511 5510 5507 5505 5503 5500 5498 5495 5491 5488 5484 5480 5476 5472
5502 5502 5503 5504 5506 5507 5508 5509 5511 5513 5514 5515 5517 5518 5519 5520 5520 5520 5520 5519 5519 5518 5516 5515 5514 5512 5510 5508 5506 5503 5501 5499 5496 5494 5490 5487 5483 5479 5475 5471 5466 5461 5457